Wind_Speed
5 3 3 9 4 2 6 7 20 19 14 8 10 5 9 13 16 5 17 22 19 16 16 13 13 12 9 9 9 8 8 8 12 15 17 15 16 19 18 15 14 14 16 15 14 15 16 15 15
5 3 2 4 9 2 10 12 8 9 9 4 4 3 4 9 11 8 22 24 20 17 16 16 14 13 10 10 10 9 8 9 11 14 16 15 16 17 18 16 17 18 16 15 16 16 16 16 17
5 4 4 1 14 5 13 14 18 18 11 4 11 4 8 8 8 10 19 19 19 17 16 14 15 13 11 10 10 9 9 10 11 14 16 17 17 19 17 17 18 17 16 16 17 17 18 18 18
3 5 4 3 11 8 14 7 9 10 5 5 5 4 10 11 9 11 17 18 14 15 14 16 15 13 12 10 10 8 9 12 8 13 16 16 17 18 17 17 16 16 16 18 18 19 19 19 18
1 1 4 2 7 5 6 8 10 6 12 5 4 11 14 13 10 12 11 14 14 11 13 14 14 12 13 10 10 11 12 16 14 16 17 18 17 18 17 16 16 17 18 20 21 20 20 20 20
4 6 5 3 14 3 15 13 15 8 7 5 3 8 16 13 16 14 13 7 9 12 13 13 11 12 13 13 13 13 15 18 17 18 18 18 18 17 16 16 17 19 21 22 21 21 21 21 20
10 8 19 11 9 3 15 11 5 7 5 6 3 10 15 6 12 14 10 15 13 9 12 12 11 11 12 14 17 16 17 19 20 19 18 18 18 17 16 16 19 21 23 22 22 22 21 20 19
6 7 23 3 19 6 14 14 15 18 9 6 4 16 19 8 10 6 8 10 20 18 15 13 9 10 14 18 19 19 18 20 20 20 22 20 17 16 15 19 20 22 22 22 23 22 20 19 19
19 16 9 2 15 14 17 17 19 10 12 7 5 1 18 13 6 5 7 9 13 15 17 20 16 11 11 15 16 18 20 22 20 23 23 21 14 13 14 18 21 22 22 22 23 21 20 18 18
9 16 10 2 6 12 7 23 18 16 10 9 11 7 19 15 11 4 9 10 9 12 14 13 17 13 10 13 17 19 22 19 28 23 23 18 21 17 15 18 21 21 20 22 22 20 19 18 19
17 11 5 5 4 10 15 20 14 13 10 12 15 15 19 20 8 4 4 5 3 8 11 7 17 15 11 11 18 21 23 23 25 24 22 19 17 20 16 19 21 21 20 20 20 19 16 19 17
2 6 5 5 7 9 8 17 16 23 18 15 10 10 18 23 7 8 2 4 4 8 12 10 12 8 8 24 28 27 27 28 24 18 20 19 21 21 19 20 21 19 19 18 16 16 9 21 10
4 16 4 5 7 6 10 14 16 17 14 16 6 13 18 18 10 10 7 4 6 2 5 9 13 13 26 23 31 28 23 17 20 19 25 24 22 21 20 20 20 18 16 13 13 14 10 13 12
1 8 5 5 5 9 14 12 20 15 20 21 7 10 18 17 14 16 14 9 9 8 0 9 13 15 24 27 21 18 17 18 17 20 22 19 20 18 17 21 23 21 18 15 13 12 12 6 10
8 7 2 1 4 10 16 16 17 23 22 23 16 9 16 14 17 16 15 15 13 10 2 4 11 13 20 16 16 18 15 16 18 18 17 16 17 18 22 23 24 19 11 13 14 12 8 8 9
7 3 6 7 4 3 15 17 9 19 21 28 21 13 22 15 22 19 20 18 17 11 10 5 9 10 15 18 15 16 17 20 18 12 8 8 13 16 17 23 21 20 15 12 19 12 8 5 9
4 4 13 4 7 6 18 14 12 18 17 23 26 21 19 24 11 14 17 14 10 7 5 6 12 10 12 16 14 11 9 16 9 5 12 14 11 17 18 25 20 12 18 20 20 17 9 8 8
17 15 19 10 10 11 8 17 18 21 29 25 26 21 19 17 20 17 14 13 14 5 9 8 6 7 9 10 12 13 12 14 12 8 12 11 8 13 11 22 22 16 16 20 18 15 15 14 12
11 9 11 10 13 14 9 17 12 11 26 27 23 24 20 21 21 18 16 15 16 14 12 11 9 11 15 11 14 14 14 16 11 13 12 6 6 5 17 27 18 14 16 20 16 13 16 12 14
7 8 8 1 14 17 14 7 8 16 16 25 21 23 22 17 20 19 24 17 14 5 9 13 10 9 17 17 14 15 18 16 17 17 11 16 11 10 13 15 15 15 11 15 21 17 14 12 13
12 11 10 5 10 19 13 8 14 9 15 27 20 23 25 24 19 20 23 23 19 7 11 10 9 10 17 18 19 21 18 21 18 17 16 15 10 12 11 12 12 10 13 15 15 16 9 14 13
15 16 7 13 12 17 17 10 16 4 14 19 22 21 27 28 25 24 20 26 21 10 14 8 9 12 17 22 22 21 17 19 15 16 13 15 16 18 16 14 13 13 11 10 14 12 15 16 11
16 13 9 12 13 11 14 7 11 20 24 23 21 28 28 28 30 31 18 19 27 28 22 16 12 14 14 20 22 22 19 19 17 18 17 17 17 18 17 15 13 13 13 14 12 10 14 14 14
16 18 17 10 16 15 18 21 11 19 10 26 25 20 31 26 31 31 26 27 24 33 23 13 13 12 12 15 21 22 23 23 22 19 21 18 14 14 13 13 13 13 13 12 12 12 12 12 13
15 17 16 10 8 1 9 3 6 13 10 12 17 26 24 34 28 25 18 20 25 20 15 9 15 15 13 18 18 19 22 27 25 22 20 20 16 11 10 10 10 12 12 11 12 10 11 12 12
20 18 18 6 3 0 19 4 11 9 14 11 12 9 19 36 36 15 20 22 17 18 13 15 16 15 14 16 16 17 21 26 24 21 20 17 14 14 14 13 13 11 11 12 12 13 13 12 13
19 26 20 24 5 2 10 6 7 8 17 14 13 9 16 25 27 15 15 16 18 14 10 20 15 20 18 14 16 18 20 25 25 24 20 17 18 17 18 15 15 14 15 15 13 11 10 12 13
20 17 17 20 3 4 5 3 8 14 23 17 14 8 10 12 12 12 15 18 17 16 13 15 20 12 15 15 18 18 18 20 25 27 26 22 26 23 18 15 14 13 15 15 12 15 15 15 13
14 18 18 15 19 5 4 6 7 22 22 22 17 18 14 13 16 20 16 14 21 18 17 18 17 17 19 23 20 19 17 19 22 23 28 29 29 26 20 21 19 15 15 15 14 14 12 12 11
15 22 17 19 11 13 8 4 6 15 27 21 20 19 18 17 8 9 16 17 16 20 19 19 21 16 22 22 21 22 19 18 20 23 24 30 30 28 26 24 19 18 17 19 13 13 16 15 12
Wind_Direction
136 141 42 121 73 29 165 135 114 126 106 104 155 150 151 149 174 180 155 159 162 167 163 154 160 153 151 142 142 136 126 120 122 125 126 120 113 115 126 123 123 124 128 121 111 113 111 113 117
136 194 29 92 163 257 91 133 116 131 126 165 74 50 150 150 181 173 161 163 162 164 163 167 161 148 147 149 147 143 133 125 130 128 128 128 123 120 115 114 121 123 125 119 120 116 116 120 113
150 183 60 106 231 201 101 112 110 115 101 183 132 88 72 84 119 152 159 160 166 167 177 174 171 158 158 155 161 158 156 141 136 129 132 131 130 120 120 118 124 126 125 120 117 121 119 110 101
142 94 113 15 196 142 105 119 146 167 93 147 182 48 78 53 121 124 137 153 162 182 179 179 175 168 171 153 171 158 161 159 151 145 141 137 129 125 124 126 128 126 123 120 124 119 108 98 92
109 22 333 225 274 151 141 163 173 128 136 176 307 116 83 67 124 117 121 147 157 177 185 188 187 185 189 187 179 160 154 151 154 144 140 134 129 124 127 132 129 124 123 127 120 113 104 98 89
20 0 30 148 259 265 103 88 122 128 149 156 297 127 90 70 104 87 90 101 148 185 191 189 191 189 195 194 183 167 158 149 142 137 135 133 128 126 128 128 131 128 127 124 117 109 104 99 91
274 325 1 192 217 196 114 106 221 169 182 136 54 109 106 79 89 95 92 85 91 113 166 169 173 177 186 185 181 169 163 153 146 142 136 137 128 126 129 132 131 132 128 123 117 109 108 100 93
237 38 10 16 189 188 134 108 126 135 113 118 360 133 144 152 124 85 75 77 75 89 126 134 147 169 184 188 183 175 168 163 157 152 154 142 132 128 127 132 134 132 128 123 116 113 111 103 91
323 3 27 206 182 181 138 121 113 111 128 114 278 87 159 144 130 96 106 102 92 100 109 117 123 153 187 183 196 188 168 160 163 156 149 163 142 131 131 133 132 133 128 127 120 120 116 107 97
340 339 325 4 149 197 164 150 133 142 147 126 144 149 150 157 174 139 75 87 104 106 95 111 93 105 132 174 190 177 175 189 172 174 168 173 162 146 142 137 133 135 133 128 127 125 117 107 115
299 317 29 51 135 222 212 174 151 128 157 186 193 180 153 168 139 160 77 80 116 93 108 107 83 96 87 126 147 144 146 167 183 176 173 174 165 146 141 140 138 138 137 136 138 138 135 119 113
307 17 191 305 221 203 196 167 153 132 151 178 202 201 147 156 158 169 245 3 21 93 112 97 94 108 107 124 130 142 144 145 154 161 165 159 158 141 143 139 142 143 143 145 139 133 140 111 118
254 325 278 35 139 182 157 163 157 149 149 160 191 163 137 134 164 196 191 298 304 353 114 108 87 104 136 128 125 130 140 146 142 142 147 153 151 143 135 144 147 144 143 147 152 134 121 105 101
356 154 111 7 26 175 195 155 165 152 169 158 207 145 139 158 154 188 191 231 250 290 297 117 119 125 143 143 132 138 152 150 142 139 148 145 140 147 154 157 159 153 156 151 129 124 116 88 74
177 158 160 222 303 199 195 195 177 167 172 161 188 164 163 174 168 185 188 228 256 268 209 139 143 157 145 146 142 146 147 145 140 142 184 160 170 159 159 167 163 153 163 143 121 111 104 73 50
286 87 305 342 150 305 195 198 194 197 159 161 178 173 187 163 175 193 212 237 262 212 236 177 145 161 153 151 168 164 155 147 145 153 164 149 175 174 176 166 158 161 163 144 140 139 151 135 88
267 289 331 41 5 262 203 195 191 179 168 178 178 191 190 182 196 206 231 246 229 171 160 217 160 171 169 172 174 163 170 135 117 116 176 192 188 208 181 178 164 158 168 162 166 162 166 171 121
239 276 283 279 259 227 223 202 198 197 191 199 191 171 162 186 198 215 231 229 235 256 207 229 239 182 203 180 162 158 170 151 167 169 168 165 172 143 182 172 168 175 174 187 186 182 187 177 192
304 266 258 342 194 194 196 197 236 191 181 205 185 175 197 195 213 218 223 230 234 237 222 226 238 200 202 215 189 199 200 184 176 202 182 208 187 136 113 173 164 166 195 201 206 208 203 178 190
262 229 246 80 218 196 199 213 237 223 210 201 191 192 200 203 229 222 213 231 244 271 234 231 225 199 194 203 202 197 195 196 207 204 197 214 183 201 191 173 175 191 220 197 197 190 206 201 197
246 246 210 248 186 191 185 157 355 252 239 214 219 204 202 209 223 220 212 224 240 226 221 221 234 218 208 207 204 208 204 198 202 200 199 195 189 220 226 203 190 204 205 203 220 203 190 209 194
270 273 218 285 167 216 217 161 219 218 233 211 200 220 204 229 219 238 224 223 237 228 243 236 216 219 206 209 218 225 218 207 205 206 203 208 201 201 222 226 204 209 202 194 218 215 208 206 206
265 262 242 250 281 276 220 220 231 194 219 224 204 196 205 210 223 238 237 218 244 224 244 247 231 208 214 221 222 224 220 218 215 198 199 200 208 205 208 211 215 214 222 205 219 232 218 221 211
254 263 270 251 250 260 286 212 215 213 229 206 204 205 203 217 228 238 245 242 250 238 219 235 221 215 213 228 226 227 222 221 215 212 209 205 204 208 213 207 216 219 231 237 229 230 229 230 223
239 258 280 286 260 219 8 209 270 251 203 190 218 220 202 206 223 225 232 234 240 246 224 194 217 218 212 225 231 228 221 222 222 223 214 216 209 211 215 221 212 217 226 226 231 233 225 226 228
226 226 241 225 157 191 322 4 340 247 180 134 116 147 194 208 215 246 228 234 245 256 262 248 248 226 219 223 232 225 219 220 218 232 218 220 215 200 202 215 213 217 229 235 233 249 246 230 225
235 227 241 261 150 155 271 242 117 163 162 154 141 146 187 194 206 223 242 245 252 256 252 240 238 222 215 228 236 231 222 221 212 220 232 224 225 226 219 220 225 228 233 236 237 236 229 238 236
247 250 240 239 145 198 211 237 280 196 166 158 157 174 157 170 201 226 238 247 259 253 249 253 248 240 221 230 240 239 232 226 229 224 225 224 217 234 239 229 234 238 250 249 247 245 230 236 248
245 255 266 273 246 151 169 231 225 204 190 173 175 178 204 204 206 205 202 226 248 246 253 277 282 251 222 232 233 245 247 235 230 230 224 227 226 225 231 228 237 247 238 248 247 259 251 245 245
242 247 244 257 280 274 259 244 197 183 175 190 182 186 203 224 234 210 217 228 215 237 263 273 278 254 242 259 238 243 248 249 242 236 229 222 230 233 239 233 233 261 261 263 252 253 265 258 257
Height
3166 3165 3164 3165 3167 3162 3163 3165 3165 3164 3163 3161 3160 3162 3163 3164 3165 3170 3168 3172 3174 3178 3180 3183 3186 3188 3189 3191 3191 3193 3195 3196 3196 3196 3198 3198 3199 3200 3201 3201 3202 3204 3205 3207 3207 3207 3206 3207 3206
3167 3166 3164 3166 3167 3163 3164 3165 3165 3165 3163 3163 3161 3161 3163 3164 3164 3165 3167 3170 3174 3177 3180 3182 3186 3187 3189 3191 3192 3194 3195 3196 3198 3198 3198 3200 3200 3201 3202 3204 3205 3206 3207 3207 3209 3209 3209 3209 3209
3167 3167 3167 3168 3166 3165 3166 3167 3166 3168 3165 3162 3162 3164 3163 3164 3164 3164 3167 3170 3174 3177 3180 3183 3185 3187 3190 3191 3193 3194 3195 3197 3199 3199 3199 3200 3202 3202 3204 3206 3208 3208 3209 3210 3210 3212 3212 3213 3213
3168 3169 3172 3167 3164 3166 3168 3170 3168 3166 3166 3165 3163 3165 3166 3166 3166 3167 3168 3171 3174 3177 3179 3182 3184 3187 3191 3191 3193 3194 3195 3197 3198 3200 3201 3202 3203 3204 3206 3207 3209 3209 3210 3211 3213 3214 3216 3216 3218
3166 3169 3167 3166 3167 3167 3166 3170 3169 3165 3165 3164 3164 3167 3167 3168 3168 3168 3170 3172 3174 3176 3178 3180 3183 3187 3190 3191 3193 3194 3195 3196 3200 3201 3202 3204 3205 3206 3207 3208 3209 3211 3213 3215 3216 3217 3218 3220 3222
3164 3167 3163 3165 3164 3167 3164 3171 3169 3165 3165 3166 3165 3167 3169 3171 3171 3171 3172 3172 3174 3176 3177 3179 3182 3186 3189 3190 3193 3195 3196 3198 3200 3203 3204 3205 3206 3207 3209 3210 3212 3214 3216 3219 3220 3220 3221 3222 3224
3161 3165 3166 3159 3166 3161 3165 3169 3169 3166 3164 3166 3167 3167 3169 3171 3174 3174 3175 3174 3174 3174 3176 3179 3181 3184 3186 3189 3192 3196 3198 3200 3201 3203 3205 3206 3206 3209 3211 3212 3214 3216 3219 3221 3222 3222 3224 3226 3228
3156 3164 3167 3166 3168 3166 3165 3167 3169 3166 3167 3168 3169 3170 3172 3172 3175 3175 3174 3176 3177 3176 3176 3178 3180 3182 3184 3187 3190 3194 3197 3200 3202 3203 3205 3206 3208 3210 3213 3215 3218 3220 3221 3223 3223 3224 3227 3230 3232
3153 3161 3165 3163 3165 3170 3167 3169 3171 3172 3170 3171 3170 3172 3171 3175 3174 3175 3177 3180 3180 3177 3178 3178 3179 3180 3183 3186 3190 3193 3197 3199 3203 3204 3205 3208 3209 3213 3217 3219 3221 3224 3225 3225 3225 3227 3230 3232 3235
3162 3163 3163 3165 3166 3167 3169 3168 3169 3172 3172 3173 3171 3175 3174 3176 3176 3177 3179 3181 3181 3181 3183 3183 3182 3182 3183 3183 3188 3193 3197 3200 3201 3204 3207 3210 3210 3213 3219 3222 3224 3227 3228 3228 3229 3230 3232 3234 3235
3165 3165 3165 3164 3164 3166 3167 3168 3170 3172 3172 3172 3172 3175 3178 3178 3179 3177 3181 3182 3181 3184 3187 3186 3185 3185 3185 3184 3187 3191 3195 3199 3201 3206 3208 3211 3213 3214 3220 3224 3227 3230 3231 3231 3231 3233 3234 3238 3240
3166 3167 3168 3166 3164 3165 3166 3168 3167 3172 3173 3174 3175 3176 3178 3180 3182 3181 3179 3181 3182 3184 3187 3187 3189 3187 3188 3187 3187 3192 3197 3198 3202 3206 3211 3214 3216 3217 3221 3223 3228 3231 3232 3233 3236 3237 3238 3244 3240
3165 3158 3168 3167 3167 3166 3168 3169 3171 3170 3176 3175 3177 3178 3180 3182 3183 3180 3181 3182 3183 3184 3186 3190 3190 3190 3191 3192 3192 3198 3200 3202 3205 3210 3216 3218 3218 3219 3220 3222 3227 3230 3234 3236 3238 3240 3240 3242 3242
3164 3162 3167 3166 3169 3168 3169 3170 3171 3174 3174 3176 3178 3180 3182 3183 3186 3184 3184 3184 3184 3184 3186 3190 3192 3196 3196 3196 3198 3199 3202 3203 3208 3213 3217 3219 3219 3220 3221 3221 3225 3229 3233 3236 3238 3241 3242 3243 3243
3163 3161 3165 3167 3168 3167 3168 3168 3170 3172 3175 3177 3179 3180 3183 3185 3187 3184 3186 3187 3188 3187 3188 3192 3195 3197 3198 3199 3201 3202 3203 3206 3212 3215 3215 3213 3219 3220 3223 3223 3225 3229 3234 3237 3240 3243 3243 3244 3245
3150 3161 3165 3168 3168 3170 3168 3169 3169 3172 3171 3175 3181 3182 3181 3184 3186 3188 3189 3189 3191 3191 3189 3192 3196 3197 3199 3199 3202 3203 3204 3206 3212 3217 3219 3218 3221 3221 3221 3222 3225 3228 3231 3236 3241 3241 3243 3242 3243
3163 3163 3164 3168 3165 3168 3168 3168 3171 3174 3175 3176 3178 3181 3181 3183 3185 3188 3189 3189 3189 3191 3191 3189 3195 3196 3198 3201 3201 3203 3205 3204 3208 3216 3220 3222 3224 3222 3221 3224 3225 3229 3231 3235 3240 3242 3244 3243 3243
3162 3160 3159 3163 3164 3166 3165 3166 3169 3171 3172 3173 3175 3178 3181 3182 3185 3188 3189 3188 3187 3191 3192 3192 3192 3193 3194 3200 3201 3201 3204 3206 3209 3216 3217 3219 3219 3219 3221 3225 3226 3229 3232 3236 3239 3241 3244 3245 3244
3160 3161 3159 3156 3159 3159 3164 3165 3169 3169 3169 3171 3174 3177 3181 3183 3186 3187 3188 3188 3189 3192 3194 3194 3195 3195 3196 3197 3201 3203 3206 3207 3206 3210 3214 3216 3215 3216 3221 3226 3225 3229 3233 3236 3239 3240 3243 3244 3243
3157 3157 3157 3158 3159 3159 3162 3167 3170 3172 3172 3172 3174 3176 3179 3183 3184 3185 3185 3186 3187 3189 3190 3191 3193 3195 3197 3199 3203 3205 3206 3207 3207 3211 3214 3213 3217 3218 3222 3227 3226 3229 3231 3234 3236 3239 3242 3242 3241
3153 3154 3154 3154 3152 3159 3163 3166 3169 3172 3171 3170 3172 3175 3178 3179 3181 3183 3182 3184 3185 3186 3187 3188 3191 3194 3195 3197 3200 3203 3206 3207 3208 3210 3214 3214 3216 3216 3220 3225 3226 3228 3230 3230 3232 3235 3237 3240 3240
3153 3152 3154 3154 3152 3155 3157 3164 3161 3160 3168 3168 3168 3170 3174 3171 3179 3180 3181 3181 3181 3185 3189 3189 3188 3190 3193 3196 3198 3201 3205 3206 3208 3210 3211 3213 3217 3219 3220 3223 3225 3227 3229 3230 3232 3234 3236 3237 3237
3152 3152 3153 3151 3151 3151 3153 3155 3152 3158 3160 3160 3161 3163 3169 3171 3174 3177 3180 3182 3183 3185 3187 3191 3189 3189 3190 3194 3196 3199 3201 3204 3206 3209 3210 3212 3215 3218 3220 3221 3223 3225 3226 3231 3233 3233 3235 3235 3235
3149 3149 3150 3149 3148 3147 3149 3150 3152 3154 3154 3152 3153 3155 3158 3164 3171 3176 3179 3180 3178 3181 3171 3184 3185 3187 3187 3192 3193 3195 3196 3200 3202 3204 3207 3210 3213 3215 3217 3220 3221 3224 3225 3227 3230 3232 3232 3233 3233
3146 3148 3148 3148 3148 3149 3146 3147 3147 3148 3150 3151 3150 3148 3153 3160 3165 3172 3175 3177 3176 3176 3182 3175 3181 3182 3183 3186 3189 3192 3194 3195 3198 3199 3202 3206 3211 3213 3215 3218 3220 3222 3223 3225 3227 3229 3230 3230 3231
3141 3144 3145 3150 3149 3147 3146 3153 3148 3144 3146 3149 3149 3150 3154 3156 3160 3162 3168 3172 3176 3176 3177 3179 3181 3179 3181 3182 3184 3188 3190 3191 3195 3196 3198 3202 3206 3209 3211 3215 3218 3220 3221 3222 3224 3225 3226 3227 3229
3137 3139 3139 3143 3145 3143 3146 3148 3144 3145 3146 3146 3146 3146 3150 3154 3160 3162 3164 3167 3172 3173 3174 3174 3175 3174 3177 3181 3183 3185 3186 3188 3191 3192 3194 3197 3200 3202 3206 3209 3212 3215 3217 3217 3218 3220 3221 3223 3225
3134 3137 3138 3138 3143 3144 3143 3141 3140 3142 3142 3144 3146 3146 3149 3153 3156 3159 3161 3163 3165 3166 3171 3171 3171 3173 3174 3176 3181 3182 3184 3186 3188 3188 3190 3194 3194 3197 3200 3203 3207 3209 3213 3215 3216 3216 3217 3220 3222
3132 3131 3133 3133 3133 3133 3142 3135 3133 3136 3142 3144 3146 3148 3151 3154 3158 3159 3162 3164 3164 3163 3165 3165 3166 3169 3170 3173 3178 3181 3181 3182 3183 3185 3187 3191 3191 3193 3196 3200 3203 3206 3209 3211 3212 3215 3215 3217 3219
3126 3128 3130 3130 3130 3128 3127 3132 3132 3134 3138 3144 3147 3150 3152 3154 3156 3158 3159 3158 3159 3160 3160 3160 3161 3163 3167 3171 3173 3176 3177 3178 3178 3180 3183 3187 3188 3190 3192 3196 3200 3203 3205 3208 3211 3211 3212 3213 3214